TimeCST,TemperatureF,Dew PointF,Humidity,Sea Level PressureIn,VisibilityMPH,Wind Direction,Wind SpeedMPH,Gust SpeedMPH,PrecipitationIn,Events,Conditions,WindDirDegrees,DateUTC
12:55 AM,48.6,30.4,50,30.17,10.0,SE,9.2,-,N/A,,Overcast,140,2012-11-18 06:55:00
1:55 AM,47.3,29.7,50,30.16,10.0,ESE,10.4,-,N/A,,Overcast,120,2012-11-18 07:55:00
2:55 AM,45.1,28.8,53,30.16,10.0,ESE,9.2,-,N/A,,Clear,120,2012-11-18 08:55:00
3:55 AM,44.8,28.9,54,30.16,10.0,East,6.9,-,N/A,,Clear,100,2012-11-18 09:55:00
4:55 AM,44.8,28.8,53,30.15,10.0,SE,9.2,-,N/A,,Clear,130,2012-11-18 10:55:00
5:55 AM,43.3,29.1,57,30.15,10.0,ESE,10.4,-,N/A,,Clear,120,2012-11-18 11:55:00
6:55 AM,43.2,29.5,59,30.15,10.0,SE,10.4,-,N/A,,Clear,130,2012-11-18 12:55:00
7:55 AM,43.2,30.2,60,30.16,10.0,ESE,9.2,-,N/A,,Clear,110,2012-11-18 13:55:00
8:55 AM,46.0,30.6,55,30.15,10.0,SE,10.4,-,N/A,,Clear,140,2012-11-18 14:55:00
9:55 AM,48.9,31.1,50,30.16,10.0,South,10.4,-,N/A,,Clear,170,2012-11-18 15:55:00
10:55 AM,55.8,32.0,41,30.14,10.0,South,13.8,19.6,N/A,,Clear,170,2012-11-18 16:55:00
11:55 AM,60.6,32.0,34,30.11,10.0,South,15.0,-,N/A,,Clear,170,2012-11-18 17:55:00
12:55 PM,60.1,31.8,34,30.08,10.0,SSE,16.1,21.9,N/A,,Clear,160,2012-11-18 18:55:00
1:55 PM,60.1,33.4,37,30.06,10.0,SSE,13.8,-,N/A,,Clear,150,2012-11-18 19:55:00
2:55 PM,59.5,34.3,39,30.05,10.0,SE,13.8,-,N/A,,Partly Cloudy,130,2012-11-18 20:55:00
3:55 PM,60.4,35.1,39,30.05,10.0,SE,16.1,-,N/A,,Scattered Clouds,140,2012-11-18 21:55:00
4:55 PM,58.6,35.4,42,30.06,10.0,SE,13.8,-,N/A,,Mostly Cloudy,140,2012-11-18 22:55:00
5:55 PM,57.2,35.2,44,30.06,10.0,SE,13.8,-,N/A,,Mostly Cloudy,130,2012-11-18 23:55:00
6:55 PM,57.2,36.1,45,30.07,10.0,SE,16.1,-,N/A,,Mostly Cloudy,140,2012-11-19 00:55:00
7:28 PM,57.2,37.4,48,30.07,10.0,SSE,15.0,21.9,N/A,Rain,Light Rain,150,2012-11-19 01:28:00
7:55 PM,54.5,40.6,60,30.08,10.0,SSE,13.8,-,0.00,Rain,Light Rain,150,2012-11-19 01:55:00
8:21 PM,55.4,39.2,54,30.06,10.0,SSE,17.3,24.2,N/A,,Clear,150,2012-11-19 02:21:00
8:55 PM,54.9,38.3,54,30.07,10.0,SE,13.8,-,0.00,,Mostly Cloudy,140,2012-11-19 02:55:00
9:48 PM,55.4,37.4,51,30.07,10.0,SSE,16.1,-,N/A,Rain,Light Rain,150,2012-11-19 03:48:00
9:55 PM,54.5,39.0,56,30.08,10.0,SSE,13.8,-,0.00,Rain,Light Rain,150,2012-11-19 03:55:00
9:59 PM,53.6,39.2,58,30.08,10.0,SE,13.8,-,N/A,,Mostly Cloudy,140,2012-11-19 03:59:00
10:01 PM,53.6,39.2,58,30.07,10.0,SSE,15.0,-,N/A,Rain,Light Rain,150,2012-11-19 04:01:00
10:08 PM,53.6,39.2,58,30.07,10.0,SSE,15.0,-,N/A,,Scattered Clouds,150,2012-11-19 04:08:00
10:55 PM,52.7,37.8,57,30.05,10.0,SE,11.5,-,0.00,,Partly Cloudy,140,2012-11-19 04:55:00
11:55 PM,51.8,36.7,56,30.04,10.0,SE,11.5,-,N/A,,Clear,130,2012-11-19 05:55:00